Dewpoint
-7 -2 -1 -3 -6 -7 -8 -7 -6 -7 -8 -7 -7 -8 -9 -10 -2 1 0 -1 -4 -4 -4 -5 -5 -5 -5 -5 -6 -8 -9 -9 -9 -9 -9 -11 -13 -15 -14 -12 -4 3 10 13
-8 -5 -6 -7 -6 -5 -6 -6 -6 -6 -6 -6 -6 -7 -9 -4 -0 -1 -2 -3 -3 -4 -4 -4 -5 -5 -6 -7 -8 -8 -9 -9 -9 -9 -9 -7 -9 -13 -14 -16 -14 -3 -0 6
-5 -5 -7 -7 -7 -6 -5 -6 -4 -3 -4 -6 -10 -10 0 -0 -1 -3 -3 -3 -4 -4 -4 -5 -6 -7 -8 -9 -9 -10 -10 -9 -7 -8 -9 -10 -9 -10 -11 -13 -12 -2 5 6
-6 -5 -7 -5 -6 -7 -6 -7 -6 -4 -3 -1 -11 -9 -6 -1 -2 -3 -3 -3 -4 -5 -6 -8 -8 -8 -7 -9 -10 -10 -9 -9 -7 -7 -9 -8 -5 -1 -0 -2 -3 5 6 8
-8 -5 -5 -3 -6 -10 -7 -10 -7 -7 -5 -11 -10 -10 -4 -1 -0 -1 -2 -6 -10 -12 -12 -9 -7 -7 -8 -7 -6 -7 -7 -7 -8 -8 -9 -8 -6 -6 0 1 1 5 6 7
-8 -7 -5 -5 -10 -13 -13 -12 -10 -9 -9 -6 -10 -10 2 1 -0 -2 -4 -7 -12 -12 -11 -10 -10 -10 -5 -5 -5 -5 -6 -7 -8 -10 -15 -19 -19 -10 -1 2 4 6 6 6
-8 -5 -8 -14 -13 -14 -12 -8 -5 -7 -4 -6 -9 -5 1 -2 -6 -5 -8 -12 -13 -12 -11 -11 -10 -8 -5 -5 -5 -5 -5 -6 -7 -8 -13 -17 -15 0 2 3 3 4 5 6
-8 -2 -12 -14 -15 -13 -13 -10 -4 -7 -4 -5 -8 -1 3 -8 -10 -11 -12 -12 -12 -10 -12 -9 -8 -8 -7 -7 -5 -4 -4 -4 -5 -10 -13 -13 1 2 2 3 3 3 3 3
-7 -9 -11 -13 -14 -15 -12 -8 -11 -8 -5 -5 -7 -9 -2 -9 -9 -11 -11 -11 -10 -11 -12 -7 -6 -6 -7 -6 -4 -3 -4 -4 -9 -13 -9 -4 1 1 1 2 2 1 2 1
-8 -10 -10 -9 -11 -12 -13 -13 -9 -6 -6 -3 -4 -7 -7 -8 -9 -10 -7 -6 -6 -8 -10 -7 -6 -5 -4 -3 -3 -3 -3 -6 -11 -11 -5 -0 0 0 0 0 0 -0 0 0
-5 -7 -8 -10 -10 -9 -10 -7 -6 -6 -3 -2 1 -2 -9 -9 -6 -4 -4 -4 -4 -5 -8 -4 -5 -4 -2 -2 -2 -2 -3 -9 -10 -7 -2 -0 -1 -1 -1 -1 -1 -1 -1 -1
-7 -4 -6 -9 -10 -11 -9 -8 -7 -3 -4 -4 -2 -5 -10 -6 -4 -3 -3 -2 -2 -3 -3 -3 -4 -3 -1 -1 -1 -1 -5 -8 -6 -2 -0 -1 -1 -2 -2 -2 -2 -2 -2 -2
-9 -8 -11 -10 -8 -6 -6 -6 -7 -7 -5 -4 -2 -4 -9 -3 -3 -3 -3 -3 -3 -4 -4 -5 -4 -2 -1 -0 -0 -2 -6 -7 -3 -1 -2 -2 -3 -3 -3 -3 -3 -4 -4 -3
-9 -7 -8 -10 -4 -4 -4 -4 -6 -7 -5 -5 -5 -6 -1 -1 -2 -3 -4 -4 -5 -6 -4 -1 -1 2 1 1 -2 -4 -5 -4 -2 -2 -3 -3 -4 -4 -4 -4 -4 -4 -5 -5
-5 -5 -3 -3 -3 -3 -3 -4 -6 -6 -6 -5 -6 -5 -0 -2 -3 -4 -4 -5 -5 -4 0 1 -0 0 1 1 -1 -3 -3 -3 -3 -3 -4 -4 -5 -5 -5 -6 -6 -6 -6 -7
-5 -4 -3 -2 -4 -4 -4 -5 -5 -6 -6 -5 -4 -2 -3 -3 -4 -4 -5 -5 -5 -3 -4 -5 -3 0 1 0 1 -3 -3 -3 -3 -4 -5 -5 -6 -6 -7 -8 -9 -13 -16 -17
-3 -2 -2 -1 -2 -3 -3 -4 -5 -5 -1 -1 2 -1 -3 -4 -4 -4 -4 -5 -5 -5 -4 -4 -4 -1 -1 -0 -1 -3 -3 -4 -4 -5 -6 -6 -7 -8 -8 -8 -9 -12 -18 -20
-3 -3 -2 -0 -4 -6 -5 -6 -5 -1 -1 -2 -2 -3 -3 -4 -4 -4 -6 -5 -3 -2 -3 -3 -2 -1 -1 -1 -2 -3 -4 -5 -6 -6 -7 -7 -8 -8 -9 -9 -9 -11 -18 -21
-5 -3 -2 -4 0 -4 -3 -4 -4 -4 -1 -3 -3 -4 -4 -4 -4 -6 -5 -3 -2 -2 -3 -3 -2 -1 -2 -3 -4 -5 -6 -6 -7 -7 -8 -8 -8 -8 -8 -8 -9 -13 -19 -21
-4 -4 -2 -3 -4 -1 -4 -3 -5 -5 0 -3 -3 -3 -3 -4 -4 -6 -4 -2 -2 -3 -2 -2 -3 -3 -4 -5 -6 -6 -7 -7 -7 -8 -8 -8 -10 -10 -10 -10 -11 -13 -20 -21
-1 -2 -1 -0 -3 -2 -3 -4 -4 -2 -2 -3 -4 -3 -4 -4 -4 -5 -2 -2 -3 -3 -3 -2 -2 -4 -5 -6 -7 -7 -8 -8 -8 -10 -10 -10 -11 -11 -12 -14 -18 -21 -23 -24
-2 -0 0 -1 0 0 -3 -4 -3 -3 -4 -4 -3 -3 -3 -3 -5 -2 -2 -2 -4 -4 -4 -5 -5 -6 -7 -7 -7 -8 -11 -12 -21 -22 -21 -22 -23 -24 -26 -28 -31 -32 -31 -30
-2 -3 -1 -1 -1 -3 -4 -4 -4 -4 -4 -3 -3 -3 -2 -3 -3 -2 -3 -3 -4 -5 -6 -6 -7 -7 -8 -8 -10 -16 -18 -15 -11 -11 -12 -14 -20 -25 -28 -31 -33 -34 -32 -29
-3 -4 -2 -3 -2 -2 -3 -3 -4 -4 -4 -4 -3 -3 -2 -2 -1 -2 -3 -4 -5 -6 -7 -8 -8 -8 -9 -9 -9 -9 -9 -9 -10 -11 -11 -12 -15 -18 -22 -23 -24 -31 -27 -22
-2 -3 -3 -3 -1 -2 -3 -4 -4 -4 -5 -4 -3 -3 -3 -3 -3 -3 -4 -5 -6 -7 -8 -8 -8 -9 -9 -9 -9 -9 -9 -10 -10 -11 -11 -14 -17 -16 -17 -16 -13 -22 -20 -16
-3 -3 -2 -2 -3 -3 -3 -4 -5 -5 -4 -4 -4 -3 -3 -3 -3 -4 -5 -6 -7 -7 -8 -8 -8 -9 -9 -9 -10 -10 -11 -12 -13 -15 -17 -18 -18 -18 -18 -17 -19 -21 -27 -26
Wind_Speed
7 5 1 4 1 2 2 4 3 5 5 8 7 10 15 26 17 27 28 30 31 32 28 27 28 29 31 35 38 40 40 41 43 45 45 46 50 50 47 43 38 28 28 27
7 4 3 7 8 7 8 6 5 6 6 5 9 12 10 14 15 25 27 28 30 30 28 29 28 29 33 36 39 41 43 44 44 45 46 45 44 48 49 47 45 42 36 28
4 2 10 6 8 8 4 5 4 3 9 4 5 9 8 9 25 27 30 30 29 29 29 27 30 34 36 39 42 44 45 42 36 37 42 48 49 48 49 50 48 45 42 35
1 2 6 6 6 5 4 6 6 6 6 2 4 2 8 8 14 18 22 32 30 29 26 26 29 33 38 37 35 32 32 34 34 37 43 47 48 46 41 42 42 40 38 34
4 5 6 7 4 3 5 6 3 3 3 3 8 5 9 11 11 7 16 24 33 32 32 30 28 25 27 18 16 17 20 25 32 38 44 49 50 49 46 41 36 39 36 30
4 3 4 2 3 4 5 5 6 3 4 3 2 4 6 3 4 6 19 25 30 29 27 27 25 28 15 13 17 20 23 27 32 36 36 38 41 42 42 43 38 37 36 33
7 5 4 7 4 7 11 6 4 5 5 4 7 6 5 2 8 14 15 26 30 29 30 31 28 23 9 15 20 22 25 30 32 36 38 38 38 32 32 35 37 35 34 31
3 4 6 7 3 1 3 3 4 2 3 4 8 6 5 6 14 14 13 17 17 18 25 21 17 14 12 15 18 21 28 28 34 38 39 36 29 31 31 32 32 29 26 22
3 3 5 5 2 3 5 4 2 1 3 3 3 4 1 12 11 16 21 28 20 28 33 13 9 7 8 11 15 19 23 27 33 35 35 34 28 28 30 30 28 21 19 14
3 3 3 5 4 6 2 2 4 3 2 5 3 2 4 14 16 19 26 31 34 38 38 17 4 7 3 6 11 15 22 27 32 34 32 29 28 28 27 26 21 16 14 13
3 3 6 4 2 1 4 4 4 2 4 3 4 4 3 14 16 15 25 32 38 41 30 18 16 13 4 8 12 18 23 28 30 30 28 26 28 27 23 20 16 14 12 13
3 3 3 4 7 2 6 3 4 4 4 1 3 7 7 16 19 22 24 28 31 35 32 27 24 15 9 14 18 21 24 27 26 24 22 23 23 22 19 17 16 14 14 15
1 1 2 4 6 6 5 4 3 2 2 6 4 5 14 22 20 22 23 28 30 32 35 29 28 15 16 16 19 22 25 26 24 21 20 19 20 20 20 19 17 16 16 18
3 2 4 5 2 1 5 8 5 1 3 3 6 14 8 14 14 24 28 32 32 34 27 20 22 9 10 13 23 23 25 25 21 18 17 18 20 20 20 20 19 17 18 19
4 2 1 4 5 3 5 7 4 5 9 6 4 5 6 12 16 26 31 37 36 32 26 20 20 21 13 18 20 24 25 22 20 18 17 20 19 19 19 20 20 21 21 23
1 2 2 4 4 4 5 7 8 5 1 4 7 5 17 22 27 30 35 34 30 30 30 32 33 30 15 20 22 19 19 20 18 17 17 18 19 19 22 24 24 26 26 25
4 3 2 3 5 7 4 4 1 2 9 3 3 6 19 21 25 28 33 28 37 37 38 36 28 24 17 20 12 12 13 15 15 16 17 18 20 21 23 23 25 25 25 24
5 4 3 2 4 2 4 2 6 8 7 6 6 11 19 22 25 26 24 32 37 37 32 30 25 23 13 10 10 10 10 11 13 16 15 16 19 21 22 22 21 22 24 25
7 5 1 3 2 7 1 3 2 3 3 7 6 12 20 27 21 7 26 34 31 31 28 23 26 6 3 9 9 9 12 13 16 17 15 14 15 16 16 18 19 19 21 24
5 5 4 3 3 5 4 3 6 4 4 4 13 16 21 26 11 11 40 38 32 22 16 12 13 12 11 10 9 12 14 16 16 13 13 14 15 16 16 16 17 17 20 22
3 2 6 3 3 7 3 4 2 2 2 8 12 9 14 10 12 25 29 25 16 16 17 13 12 13 12 10 12 16 17 18 13 11 11 13 14 16 17 17 18 18 20 22
8 6 4 3 2 8 3 2 2 2 6 6 6 8 10 14 18 20 13 15 14 14 13 12 13 14 13 14 15 18 19 17 20 21 22 23 23 22 20 20 21 21 22 23
3 6 5 7 5 8 11 12 8 2 2 4 8 10 10 13 14 10 12 12 12 12 12 11 13 16 16 16 18 22 22 21 19 19 21 21 21 21 21 22 24 25 25 26
1 4 3 3 6 11 10 9 5 6 5 6 8 8 11 9 12 9 7 9 8 10 11 10 14 17 18 16 17 17 13 12 12 14 17 18 20 20 21 24 28 30 28 27
4 2 4 2 10 13 8 5 5 5 6 7 5 6 11 9 8 6 7 7 8 8 9 10 12 13 12 11 13 9 7 7 10 12 14 16 18 20 23 25 27 28 26 24
6 5 4 5 10 5 5 1 5 7 5 5 4 5 2 2 3 4 5 7 6 7 9 10 10 10 10 9 8 8 8 7 8 11 14 15 16 17 17 18 17 20 23 21
Wind_Direction
341 76 259 247 297 26 3 39 349 296 343 25 330 317 312 319 74 86 90 89 81 72 67 52 39 26 17 13 11 8 6 1 353 351 352 350 349 346 341 340 343 342 315 293
22 64 299 71 33 46 60 50 346 295 321 20 324 308 340 46 64 82 85 79 75 66 48 29 22 22 17 14 10 5 0 354 350 350 350 350 349 345 342 335 333 334 333 325
121 269 61 74 37 33 356 48 337 268 333 36 11 342 49 52 65 66 70 72 59 43 37 43 32 20 10 4 357 354 348 347 349 349 346 342 340 341 339 338 333 332 334 332
51 354 87 67 51 35 345 339 315 327 4 320 50 277 17 33 55 52 59 56 45 32 33 29 13 2 354 350 344 340 337 337 341 350 346 343 342 345 344 336 329 326 334 338
266 333 61 68 35 3 257 317 283 234 192 57 352 82 315 58 48 27 47 46 32 23 16 12 3 2 351 345 349 345 343 343 346 348 345 340 339 338 339 336 328 325 324 336
250 8 41 83 123 55 287 330 6 43 103 72 307 128 319 9 9 15 38 22 14 11 9 6 1 356 356 360 4 10 7 1 352 347 344 338 332 329 330 333 333 329 325 331
353 21 335 38 39 355 30 34 359 6 11 219 308 71 172 130 54 51 22 9 0 357 358 353 355 352 359 347 353 2 1 353 348 342 341 334 331 328 335 336 331 330 325 327
27 314 360 338 98 293 337 97 124 282 277 258 299 140 185 115 83 54 27 359 3 12 356 349 348 345 321 330 344 354 352 346 347 345 341 339 337 338 337 334 333 331 329 337
28 199 314 45 30 88 315 45 181 193 321 6 262 36 202 6 30 10 4 13 11 354 348 332 333 331 328 331 345 351 345 349 348 349 346 347 346 341 341 339 338 337 336 352
322 313 333 299 18 2 101 258 19 10 322 296 259 291 253 359 347 15 20 8 353 344 343 338 14 19 334 348 354 350 352 352 353 352 351 354 350 349 348 346 344 351 357 2
30 87 295 359 64 349 7 7 22 109 136 198 310 238 72 12 36 23 10 8 6 0 0 9 359 357 350 360 352 354 352 355 352 352 353 350 348 351 354 356 1 360 0 14
341 123 291 272 276 326 101 96 68 94 298 243 179 275 74 55 37 25 13 8 9 6 1 359 4 2 355 347 347 347 354 355 354 352 352 349 353 0 6 10 11 15 26 33
61 44 349 359 351 14 35 56 106 229 137 201 164 260 33 29 18 7 1 354 346 343 333 329 328 356 331 334 344 349 348 354 357 357 357 358 8 12 18 23 22 28 38 42
106 135 178 203 119 343 308 329 352 163 244 230 226 285 21 2 354 350 344 336 334 331 319 332 340 10 351 358 348 350 352 357 3 5 11 19 21 23 28 30 30 28 34 38
111 163 270 287 307 303 269 282 287 255 245 228 292 292 14 354 346 338 333 331 333 340 355 342 335 346 350 347 341 350 356 4 11 13 21 31 30 29 31 33 36 39 43 43
156 242 58 297 332 335 287 284 252 254 20 285 321 315 2 342 342 337 332 333 335 336 330 330 324 334 312 342 341 346 1 14 10 15 33 31 32 37 41 43 49 46 45 44
134 127 85 266 339 338 315 209 37 75 49 354 2 317 325 334 345 333 323 345 334 325 321 323 321 331 301 323 344 358 12 19 18 32 39 43 45 48 50 51 46 49 46 47
137 114 121 243 19 353 221 349 125 103 84 48 357 332 329 326 331 325 345 335 323 324 322 324 317 319 286 320 353 26 33 38 40 42 48 52 56 56 53 50 48 41 44 47
153 124 128 136 221 293 334 109 166 194 127 45 346 327 328 336 329 336 341 339 326 334 328 324 318 163 29 32 40 45 54 55 50 53 56 53 54 58 59 56 48 45 47 49
138 116 132 95 156 231 199 195 300 180 212 24 10 351 331 339 352 333 345 340 340 354 26 72 63 65 50 49 48 56 62 56 49 45 47 50 48 43 45 46 50 50 53 53
155 187 196 165 223 282 285 327 294 120 232 20 347 315 329 342 318 329 345 12 42 31 41 47 50 57 53 45 55 63 58 55 50 48 51 48 45 49 51 56 61 61 59 57
175 169 189 150 213 269 353 38 157 160 324 331 341 325 334 334 355 353 37 21 19 31 44 57 63 64 66 60 59 62 62 60 65 67 67 66 65 65 64 63 61 57 55 54
208 190 178 177 211 116 75 122 151 149 118 10 348 353 336 349 356 34 34 31 33 44 46 51 70 78 73 70 70 71 72 81 69 64 62 60 59 59 59 57 55 53 49 49
102 20 141 107 152 140 139 135 101 62 52 16 15 10 11 40 68 101 37 56 51 51 62 69 82 80 76 73 77 72 67 68 63 60 56 54 52 51 51 52 47 43 43 44
221 17 151 301 126 140 150 126 61 11 360 15 39 59 72 89 67 94 79 72 71 87 94 92 91 89 85 76 86 76 60 43 52 53 54 55 57 52 48 49 38 34 42 41
192 194 169 220 182 185 169 104 331 324 335 17 38 83 74 88 88 100 102 104 99 109 105 99 91 90 91 86 74 52 42 45 56 69 66 62 57 57 58 58 57 45 41 43
Height
1528 1536 1540 1535 1531 1530 1532 1538 1540 1531 1526 1528 1530 1523 1513 1506 1508 1514 1519 1522 1524 1523 1524 1520 1517 1515 1511 1508 1504 1501 1498 1498 1493 1486 1481 1480 1475 1470 1466 1465 1464 1463 1457 1451
1536 1541 1532 1530 1530 1533 1538 1542 1543 1533 1525 1529 1529 1525 1521 1516 1523 1525 1527 1529 1529 1528 1525 1522 1519 1515 1512 1508 1505 1502 1498 1496 1495 1491 1484 1479 1477 1473 1465 1457 1454 1450 1448 1447
1541 1536 1531 1533 1537 1539 1539 1543 1542 1542 1531 1533 1532 1532 1532 1531 1532 1532 1533 1533 1531 1529 1527 1525 1521 1517 1514 1509 1505 1502 1500 1497 1493 1489 1484 1479 1471 1466 1460 1452 1447 1443 1439 1436
1538 1535 1534 1538 1541 1540 1546 1537 1537 1538 1542 1557 1539 1564 1545 1545 1541 1538 1538 1535 1534 1532 1529 1525 1521 1517 1514 1511 1508 1506 1502 1498 1490 1487 1481 1474 1466 1458 1456 1451 1446 1442 1437 1432
1543 1536 1538 1544 1545 1539 1543 1536 1535 1535 1543 1545 1547 1559 1562 1545 1547 1545 1541 1539 1537 1535 1533 1529 1525 1523 1517 1511 1508 1504 1501 1497 1492 1485 1479 1470 1465 1460 1453 1448 1443 1438 1434 1430
1540 1537 1540 1542 1542 1541 1539 1536 1536 1539 1547 1562 1547 1558 1571 1559 1552 1546 1545 1541 1537 1532 1529 1527 1525 1521 1516 1512 1509 1506 1502 1497 1492 1487 1481 1474 1467 1460 1453 1445 1440 1435 1430 1425
1548 1546 1543 1542 1545 1543 1545 1553 1571 1563 1570 1565 1544 1557 1562 1554 1550 1548 1547 1543 1538 1533 1528 1525 1522 1518 1515 1511 1508 1504 1500 1496 1491 1485 1478 1471 1464 1458 1452 1445 1438 1432 1428 1421
1567 1564 1552 1545 1548 1552 1552 1555 1576 1574 1577 1572 1549 1564 1560 1551 1550 1548 1547 1544 1540 1537 1532 1527 1522 1517 1512 1508 1505 1502 1498 1493 1488 1483 1476 1469 1463 1457 1450 1444 1437 1431 1428 1422
1573 1563 1552 1549 1548 1549 1553 1563 1553 1563 1567 1571 1562 1550 1548 1544 1546 1546 1543 1541 1538 1535 1530 1525 1519 1514 1511 1506 1503 1500 1495 1491 1486 1480 1474 1466 1461 1457 1448 1442 1436 1431 1427 1421
1568 1572 1558 1551 1549 1550 1551 1552 1568 1573 1577 1577 1566 1557 1556 1551 1546 1543 1544 1544 1539 1533 1527 1522 1518 1515 1509 1505 1502 1498 1494 1490 1484 1477 1472 1468 1461 1454 1446 1440 1435 1432 1426 1423
1567 1571 1567 1557 1557 1561 1560 1565 1565 1567 1578 1584 1587 1568 1548 1550 1555 1554 1550 1546 1540 1531 1525 1524 1523 1518 1512 1507 1502 1497 1492 1487 1481 1476 1472 1467 1461 1452 1446 1440 1436 1433 1428 1424
1572 1576 1580 1568 1558 1557 1559 1568 1570 1585 1582 1580 1585 1562 1550 1555 1555 1552 1550 1547 1544 1539 1535 1529 1523 1519 1513 1509 1503 1497 1491 1486 1480 1475 1471 1467 1461 1453 1446 1443 1437 1434 1430 1426
1574 1581 1585 1570 1566 1563 1566 1569 1570 1574 1580 1582 1596 1572 1550 1553 1554 1554 1551 1546 1543 1538 1532 1527 1522 1516 1511 1507 1504 1497 1492 1484 1480 1475 1470 1466 1461 1455 1449 1444 1439 1438 1434 1427
1572 1579 1581 1582 1575 1576 1575 1571 1570 1573 1582 1575 1574 1557 1563 1561 1557 1553 1550 1546 1542 1537 1528 1523 1518 1513 1508 1502 1505 1498 1492 1485 1481 1475 1471 1466 1462 1459 1453 1446 1442 1441 1437 1432
1573 1580 1577 1575 1574 1574 1574 1574 1571 1573 1569 1573 1563 1563 1567 1565 1560 1555 1550 1542 1534 1529 1526 1522 1517 1512 1507 1503 1502 1498 1492 1487 1481 1476 1473 1468 1465 1462 1456 1449 1446 1445 1441 1437
1573 1581 1577 1577 1573 1572 1573 1572 1568 1564 1564 1563 1563 1562 1564 1564 1559 1554 1548 1541 1534 1530 1526 1521 1517 1509 1504 1501 1497 1497 1494 1487 1484 1478 1476 1472 1468 1464 1458 1453 1451 1451 1448 1443
1576 1580 1587 1584 1577 1576 1574 1565 1564 1563 1572 1571 1576 1572 1566 1561 1557 1554 1544 1541 1536 1528 1522 1516 1513 1509 1504 1498 1496 1494 1493 1489 1485 1480 1479 1476 1472 1468 1463 1459 1457 1455 1452 1449
1574 1579 1587 1593 1586 1608 1562 1560 1562 1566 1574 1576 1574 1570 1567 1563 1558 1550 1547 1541 1533 1525 1519 1513 1509 1507 1502 1500 1497 1495 1492 1490 1487 1482 1483 1480 1476 1472 1468 1464 1462 1460 1457 1453
1567 1577 1592 1606 1593 1575 1558 1561 1562 1561 1573 1573 1572 1570 1565 1559 1554 1549 1545 1538 1532 1524 1517 1511 1505 1503 1502 1501 1499 1497 1494 1492 1488 1488 1487 1484 1480 1476 1472 1469 1466 1464 1461 1458
1568 1571 1583 1603 1608 1594 1557 1558 1556 1555 1568 1570 1567 1566 1563 1556 1549 1544 1536 1533 1528 1521 1514 1511 1509 1508 1506 1505 1504 1501 1499 1494 1492 1493 1491 1488 1484 1480 1477 1474 1471 1469 1466 1463
1573 1576 1576 1584 1596 1572 1555 1555 1552 1559 1566 1563 1565 1566 1563 1557 1556 1547 1540 1535 1529 1526 1521 1517 1514 1512 1512 1510 1507 1504 1502 1498 1498 1497 1494 1491 1487 1483 1480 1478 1476 1474 1470 1468
1564 1570 1577 1578 1581 1575 1554 1554 1553 1560 1558 1560 1561 1560 1556 1552 1548 1545 1540 1538 1534 1530 1526 1522 1517 1516 1515 1513 1511 1508 1505 1505 1504 1501 1498 1495 1492 1488 1485 1483 1480 1477 1474 1471
1558 1552 1557 1555 1557 1554 1553 1553 1554 1554 1554 1556 1554 1552 1549 1546 1545 1543 1541 1539 1537 1533 1532 1529 1523 1520 1519 1517 1516 1514 1512 1511 1509 1506 1503 1500 1497 1493 1490 1486 1483 1480 1477 1473
1546 1546 1547 1549 1555 1553 1555 1554 1552 1550 1550 1551 1549 1548 1543 1544 1542 1541 1542 1540 1539 1535 1534 1533 1529 1524 1523 1522 1521 1520 1518 1516 1513 1510 1507 1504 1500 1497 1494 1490 1487 1483 1480 1478
1547 1546 1547 1548 1551 1555 1555 1551 1548 1549 1547 1545 1545 1546 1544 1544 1543 1541 1541 1540 1540 1538 1536 1535 1533 1529 1527 1527 1525 1523 1522 1519 1516 1514 1511 1508 1504 1501 1498 1495 1492 1489 1486 1484
1541 1542 1546 1547 1542 1544 1546 1545 1546 1546 1546 1544 1544 1543 1544 1543 1542 1541 1541 1541 1540 1540 1538 1537 1536 1532 1531 1530 1528 1527 1524 1522 1519 1516 1514 1511 1508 1505 1503 1501 1498 1495 1492 1488